SWA1447 KCMH-KMDW

Flight info

Callsign SWA1447
Flight time 0h 54m
Altitude 38000
Route PKACZ TARRY ROD FWA PANGG7
Aircraft B38M/M-SDE1FGHILORVWXY/HB1

Departure

Time 2026-05-09 02:31
Airport John Glenn Columbus International Airport (KCMH)

Arrival

Time 2026-05-09 03:25
Airport Chicago Midway International Airport (KMDW)
Time Latitude Longitude Altitude Speed Heading
2026-05-09 02:15 39.99651 -82.88496 823 ft 0 kts 15°
2026-05-09 02:20 39.99645 -82.88498 823 ft 2 kts 14°
2026-05-09 02:21 39.99629 -82.88501 819 ft 2 kts
2026-05-09 02:21 39.99613 -82.88499 821 ft 2 kts 345°
2026-05-09 02:21 39.99597 -82.88495 820 ft 2 kts 18°
2026-05-09 02:21 39.99591 -82.88513 822 ft 2 kts 91°
2026-05-09 02:22 39.99592 -82.88522 822 ft 0 kts 91°
2026-05-09 02:24 39.99592 -82.88521 822 ft 1 kts 91°
2026-05-09 02:24 39.99590 -82.88464 821 ft 11 kts 94°
2026-05-09 02:24 39.99590 -82.88339 818 ft 15 kts 64°
2026-05-09 02:24 39.99617 -82.88237 821 ft 11 kts 97°
2026-05-09 02:25 39.99606 -82.88134 822 ft 12 kts 97°
2026-05-09 02:25 39.99601 -82.88029 823 ft 11 kts 89°
2026-05-09 02:25 39.99600 -82.87928 825 ft 11 kts 86°
2026-05-09 02:25 39.99595 -82.87831 826 ft 11 kts 101°
2026-05-09 02:26 39.99570 -82.87703 827 ft 20 kts 94°
2026-05-09 02:26 39.99558 -82.87492 827 ft 25 kts 94°
2026-05-09 02:26 39.99541 -82.87319 825 ft 14 kts 125°
2026-05-09 02:26 39.99478 -82.87295 825 ft 7 kts 188°
2026-05-09 02:27 39.99421 -82.87303 825 ft 12 kts 185°
2026-05-09 02:27 39.99330 -82.87313 823 ft 13 kts 185°
2026-05-09 02:27 39.99245 -82.87325 822 ft 3 kts 184°
2026-05-09 02:29 39.99168 -82.87362 822 ft 12 kts 239°
2026-05-09 02:29 39.99167 -82.87411 822 ft 0 kts 273°
2026-05-09 02:30 39.99171 -82.87506 821 ft 42 kts 274°
2026-05-09 02:30 39.99209 -82.88238 825 ft 117 kts 274°
2026-05-09 02:30 39.99282 -82.89560 903 ft 170 kts 275°
2026-05-09 02:31 39.99363 -82.91188 1550 ft 185 kts 273°
2026-05-09 02:31 39.99412 -82.92730 2780 ft 170 kts 272°
2026-05-09 02:31 39.99510 -82.94337 3616 ft 186 kts 272°
2026-05-09 02:31 39.99653 -82.96166 4121 ft 221 kts 272°
2026-05-09 02:32 39.99833 -82.98373 4322 ft 271 kts 272°
2026-05-09 02:32 40.00041 -83.01014 4753 ft 305 kts 272°
2026-05-09 02:32 40.00263 -83.03709 6420 ft 293 kts 272°
2026-05-09 02:32 40.00482 -83.06286 8236 ft 276 kts 273°
2026-05-09 02:33 40.00665 -83.08710 9971 ft 260 kts 273°
2026-05-09 02:33 40.00802 -83.11040 10989 ft 268 kts 273°
2026-05-09 02:33 40.00923 -83.13557 11503 ft 288 kts 273°
2026-05-09 02:33 40.01044 -83.16263 11967 ft 309 kts 273°
2026-05-09 02:34 40.01166 -83.19151 12532 ft 325 kts 273°
2026-05-09 02:34 40.01281 -83.22165 12910 ft 347 kts 273°
2026-05-09 02:34 40.01401 -83.25449 12897 ft 376 kts 273°
2026-05-09 02:34 40.01530 -83.28966 12891 ft 401 kts 273°
2026-05-09 02:35 40.01669 -83.32668 12868 ft 412 kts 273°
2026-05-09 02:35 40.01812 -83.36421 12870 ft 415 kts 273°
2026-05-09 02:35 40.01746 -83.40158 12905 ft 396 kts 266°
2026-05-09 02:35 40.01580 -83.43573 12934 ft 361 kts 268°
2026-05-09 02:36 40.01492 -83.46715 12967 ft 331 kts 269°
2026-05-09 02:36 40.01440 -83.49591 12983 ft 305 kts 269°
2026-05-09 02:36 40.01404 -83.52257 12848 ft 295 kts 270°
2026-05-09 02:36 40.01376 -83.54924 12743 ft 297 kts 270°
2026-05-09 02:37 40.01356 -83.57649 13092 ft 303 kts 271°
2026-05-09 02:37 40.01641 -83.60389 13432 ft 307 kts 280°
2026-05-09 02:37 40.02014 -83.63124 13804 ft 310 kts 279°
2026-05-09 02:37 40.02372 -83.65906 14120 ft 311 kts 279°
2026-05-09 02:38 40.02719 -83.68703 14427 ft 312 kts 278°
2026-05-09 02:38 40.03059 -83.71507 14725 ft 314 kts 278°
2026-05-09 02:38 40.03395 -83.74322 15048 ft 315 kts 278°
2026-05-09 02:38 40.03741 -83.77230 15387 ft 316 kts 278°
2026-05-09 02:39 40.04067 -83.79989 15709 ft 316 kts 278°
2026-05-09 02:39 40.04403 -83.82837 16038 ft 318 kts 277°
2026-05-09 02:39 40.04735 -83.85664 16372 ft 319 kts 277°
2026-05-09 02:39 40.05311 -83.88431 16691 ft 322 kts 292°
2026-05-09 02:40 40.06595 -83.90871 17049 ft 332 kts 310°
2026-05-09 02:40 40.08466 -83.92712 17429 ft 344 kts 325°
2026-05-09 02:40 40.10633 -83.94082 17833 ft 350 kts 328°
2026-05-09 02:40 40.12871 -83.95412 18225 ft 354 kts 329°
2026-05-09 02:41 40.15136 -83.96712 18562 ft 356 kts 329°
2026-05-09 02:41 40.17417 -83.98000 18899 ft 357 kts 330°
2026-05-09 02:41 40.19705 -83.99279 19227 ft 358 kts 330°
2026-05-09 02:41 40.22000 -84.00554 19576 ft 360 kts 329°
2026-05-09 02:42 40.24380 -84.01873 19946 ft 361 kts 329°
2026-05-09 02:42 40.26606 -84.03110 20312 ft 360 kts 328°
2026-05-09 02:42 40.28663 -84.04844 20625 ft 346 kts 310°
2026-05-09 02:42 40.30275 -84.07138 21029 ft 343 kts 305°
2026-05-09 02:43 40.31852 -84.09520 21372 ft 345 kts 304°
2026-05-09 02:43 40.33397 -84.11938 21751 ft 345 kts 303°
2026-05-09 02:43 40.34904 -84.14338 22104 ft 347 kts 303°
2026-05-09 02:43 40.36453 -84.16835 22455 ft 349 kts 303°
2026-05-09 02:44 40.37960 -84.19284 22825 ft 350 kts 302°
2026-05-09 02:44 40.39488 -84.21776 23188 ft 351 kts 302°
2026-05-09 02:44 40.41021 -84.24281 23542 ft 352 kts 302°
2026-05-09 02:44 40.42560 -84.26799 23842 ft 353 kts 302°
2026-05-09 02:45 40.44090 -84.29306 24152 ft 354 kts 302°
2026-05-09 02:45 40.45637 -84.31843 24464 ft 356 kts 302°
2026-05-09 02:45 40.47187 -84.34387 24781 ft 358 kts 302°
2026-05-09 02:45 40.48744 -84.36945 25106 ft 359 kts 302°
2026-05-09 02:46 40.50308 -84.39515 25417 ft 360 kts 302°
2026-05-09 02:46 40.51861 -84.42071 25735 ft 361 kts 302°
2026-05-09 02:46 40.53422 -84.44640 26066 ft 363 kts 302°
2026-05-09 02:46 40.54999 -84.47240 26409 ft 363 kts 301°
2026-05-09 02:47 40.56574 -84.49838 26744 ft 362 kts 301°
2026-05-09 02:47 40.58142 -84.52425 27084 ft 360 kts 301°
2026-05-09 02:47 40.59691 -84.54984 27415 ft 359 kts 301°
2026-05-09 02:47 40.61240 -84.57546 27763 ft 358 kts 301°
2026-05-09 02:48 40.62787 -84.60107 28116 ft 356 kts 301°
2026-05-09 02:48 40.64324 -84.62652 28454 ft 355 kts 301°
2026-05-09 02:48 40.65862 -84.65201 28831 ft 353 kts 301°
2026-05-09 02:48 40.67388 -84.67733 29184 ft 352 kts 301°
2026-05-09 02:49 40.68909 -84.70259 29553 ft 352 kts 301°
2026-05-09 02:49 40.70435 -84.72794 29852 ft 352 kts 301°
2026-05-09 02:49 40.71950 -84.75314 29888 ft 350 kts 301°
2026-05-09 02:50 40.74964 -84.80333 29875 ft 348 kts 300°
2026-05-09 02:50 40.77950 -84.85314 29875 ft 349 kts 300°
2026-05-09 02:51 40.81022 -84.90446 29882 ft 366 kts 301°
2026-05-09 02:51 40.84249 -84.95846 29867 ft 382 kts 301°
2026-05-09 02:52 40.87026 -85.00501 29879 ft 394 kts 301°
2026-05-09 02:52 40.90457 -85.06263 29870 ft 405 kts 301°
2026-05-09 02:53 40.93951 -85.12136 29874 ft 405 kts 301°
2026-05-09 02:53 40.97480 -85.17907 29846 ft 412 kts 308°
2026-05-09 02:53 40.99819 -85.20183 29874 ft 424 kts 321°
2026-05-09 02:54 41.02349 -85.22212 29871 ft 427 kts 320°
2026-05-09 02:54 41.04846 -85.24225 29746 ft 426 kts 320°
2026-05-09 02:54 41.07441 -85.26292 29506 ft 427 kts 320°
2026-05-09 02:54 41.09955 -85.28281 29289 ft 424 kts 320°
2026-05-09 02:55 41.12480 -85.30276 29088 ft 422 kts 320°
2026-05-09 02:55 41.15004 -85.32270 28859 ft 422 kts 320°
2026-05-09 02:55 41.17530 -85.34267 28653 ft 423 kts 320°
2026-05-09 02:55 41.20065 -85.36272 28443 ft 424 kts 320°
2026-05-09 02:56 41.22601 -85.38280 28243 ft 425 kts 320°
2026-05-09 02:56 41.25137 -85.40290 28037 ft 425 kts 320°
2026-05-09 02:56 41.27684 -85.42311 27879 ft 426 kts 320°
2026-05-09 02:56 41.30237 -85.44336 27659 ft 427 kts 320°
2026-05-09 02:57 41.32788 -85.46363 27309 ft 428 kts 320°
2026-05-09 02:57 41.35348 -85.48399 26811 ft 428 kts 321°
2026-05-09 02:57 41.37895 -85.50427 26328 ft 429 kts 321°
2026-05-09 02:57 41.40466 -85.52475 25855 ft 429 kts 321°
2026-05-09 02:58 41.43032 -85.54522 25385 ft 430 kts 321°
2026-05-09 02:58 41.45592 -85.56564 24928 ft 428 kts 321°
2026-05-09 02:58 41.47997 -85.58809 24476 ft 414 kts 310°
2026-05-09 02:58 41.49771 -85.61737 24054 ft 401 kts 295°
2026-05-09 02:59 41.50862 -85.65111 23570 ft 394 kts 283°
2026-05-09 02:59 41.51332 -85.68690 23055 ft 391 kts 276°
2026-05-09 02:59 41.51610 -85.72311 22475 ft 390 kts 274°
2026-05-09 02:59 41.51790 -85.75853 21927 ft 388 kts 272°
2026-05-09 03:00 41.51919 -85.79436 21360 ft 387 kts 272°
2026-05-09 03:00 41.52021 -85.83006 20814 ft 385 kts 271°
2026-05-09 03:00 41.52107 -85.86594 20267 ft 384 kts 271°
2026-05-09 03:00 41.52182 -85.90154 19732 ft 383 kts 271°
2026-05-09 03:01 41.52252 -85.93700 19204 ft 382 kts 271°
2026-05-09 03:01 41.52319 -85.97218 18677 ft 381 kts 271°
2026-05-09 03:01 41.52384 -86.00753 18155 ft 380 kts 271°
2026-05-09 03:01 41.52447 -86.04225 17602 ft 379 kts 271°
2026-05-09 03:02 41.52482 -86.07733 16993 ft 376 kts 270°
2026-05-09 03:02 41.52464 -86.11229 16383 ft 374 kts 270°
2026-05-09 03:02 41.52450 -86.14682 15811 ft 373 kts 270°
2026-05-09 03:02 41.52438 -86.18134 15282 ft 370 kts 270°
2026-05-09 03:03 41.52425 -86.21564 14696 ft 369 kts 270°
2026-05-09 03:03 41.52411 -86.24976 14163 ft 367 kts 270°
2026-05-09 03:03 41.52397 -86.28371 13634 ft 366 kts 270°
2026-05-09 03:03 41.52382 -86.31750 13038 ft 365 kts 270°
2026-05-09 03:04 41.52365 -86.35130 12453 ft 364 kts 270°
2026-05-09 03:04 41.52349 -86.38467 11877 ft 363 kts 270°
2026-05-09 03:04 41.52327 -86.41831 11300 ft 363 kts 270°
2026-05-09 03:04 41.52304 -86.45206 10735 ft 362 kts 270°
2026-05-09 03:05 41.52281 -86.48563 10223 ft 361 kts 270°
2026-05-09 03:05 41.52257 -86.51875 10072 ft 354 kts 270°
2026-05-09 03:05 41.52232 -86.55185 10022 ft 356 kts 270°
2026-05-09 03:05 41.52206 -86.58493 10003 ft 357 kts 270°
2026-05-09 03:06 41.52180 -86.61800 9996 ft 356 kts 270°
2026-05-09 03:06 41.52153 -86.65030 9991 ft 347 kts 270°
2026-05-09 03:06 41.52126 -86.68154 10011 ft 319 kts 271°
2026-05-09 03:06 41.52100 -86.71007 10030 ft 294 kts 271°
2026-05-09 03:07 41.52077 -86.73600 9944 ft 275 kts 271°
2026-05-09 03:07 41.52054 -86.76091 9744 ft 263 kts 271°
2026-05-09 03:07 41.52031 -86.78510 9526 ft 260 kts 271°
2026-05-09 03:07 41.52008 -86.80915 9314 ft 259 kts 271°
2026-05-09 03:08 41.51983 -86.83324 9100 ft 259 kts 271°
2026-05-09 03:08 41.51959 -86.85723 8882 ft 258 kts 271°
2026-05-09 03:08 41.51934 -86.88111 8650 ft 258 kts 270°
2026-05-09 03:08 41.51909 -86.90507 8455 ft 258 kts 270°
2026-05-09 03:09 41.51882 -86.92913 8261 ft 259 kts 270°
2026-05-09 03:09 41.51856 -86.95309 8050 ft 258 kts 270°
2026-05-09 03:09 41.51830 -86.97660 7837 ft 256 kts 270°
2026-05-09 03:09 41.51803 -87.00033 7646 ft 255 kts 270°
2026-05-09 03:10 41.51775 -87.02398 7446 ft 255 kts 270°
2026-05-09 03:10 41.51746 -87.04759 7238 ft 254 kts 270°
2026-05-09 03:10 41.51718 -87.07087 7043 ft 254 kts 270°
2026-05-09 03:10 41.51689 -87.09434 6834 ft 253 kts 270°
2026-05-09 03:11 41.51660 -87.11782 6611 ft 253 kts 270°
2026-05-09 03:11 41.51630 -87.14126 6389 ft 253 kts 270°
2026-05-09 03:11 41.51645 -87.16457 6164 ft 251 kts 276°
2026-05-09 03:11 41.51793 -87.18780 6034 ft 251 kts 276°
2026-05-09 03:12 41.51933 -87.21109 5967 ft 251 kts 276°
2026-05-09 03:12 41.52067 -87.23436 5846 ft 251 kts 276°
2026-05-09 03:12 41.52197 -87.25756 5717 ft 250 kts 276°
2026-05-09 03:12 41.52324 -87.28081 5597 ft 251 kts 276°
2026-05-09 03:13 41.52572 -87.32675 5349 ft 250 kts 275°
2026-05-09 03:13 41.52694 -87.34981 5238 ft 249 kts 275°
2026-05-09 03:13 41.52817 -87.37290 5110 ft 249 kts 275°
2026-05-09 03:14 41.52938 -87.39583 4992 ft 249 kts 275°
2026-05-09 03:14 41.53060 -87.41895 4886 ft 249 kts 275°
2026-05-09 03:14 41.53180 -87.44187 4764 ft 247 kts 275°
2026-05-09 03:14 41.53300 -87.46477 4652 ft 247 kts 275°
2026-05-09 03:15 41.53418 -87.48764 4526 ft 247 kts 275°
2026-05-09 03:15 41.53537 -87.51053 4391 ft 247 kts 275°
2026-05-09 03:15 41.53655 -87.53349 4285 ft 247 kts 274°
2026-05-09 03:15 41.53771 -87.55598 4177 ft 245 kts 274°
2026-05-09 03:16 41.53887 -87.57864 4059 ft 244 kts 273°
2026-05-09 03:16 41.54003 -87.60129 4027 ft 245 kts 274°
2026-05-09 03:16 41.54119 -87.62408 4037 ft 246 kts 274°
2026-05-09 03:16 41.54235 -87.64667 4024 ft 246 kts 274°
2026-05-09 03:17 41.54352 -87.66950 4026 ft 246 kts 274°
2026-05-09 03:17 41.54468 -87.69229 4020 ft 246 kts 274°
2026-05-09 03:17 41.54584 -87.71482 4017 ft 245 kts 274°
2026-05-09 03:17 41.54701 -87.73729 4029 ft 246 kts 274°
2026-05-09 03:18 41.54819 -87.76005 4013 ft 245 kts 274°
2026-05-09 03:18 41.54937 -87.78275 4022 ft 245 kts 274°
2026-05-09 03:18 41.55056 -87.80538 4013 ft 244 kts 274°
2026-05-09 03:18 41.55176 -87.82799 4016 ft 244 kts 274°
2026-05-09 03:19 41.55295 -87.85061 4008 ft 244 kts 274°
2026-05-09 03:19 41.55416 -87.87322 4022 ft 245 kts 274°
2026-05-09 03:19 41.55537 -87.89597 4009 ft 245 kts 274°
2026-05-09 03:19 41.55658 -87.91869 4020 ft 245 kts 274°
2026-05-09 03:20 41.56044 -87.94066 3933 ft 245 kts 297°
2026-05-09 03:20 41.57182 -87.95717 3914 ft 246 kts 327°
2026-05-09 03:20 41.58822 -87.96383 4043 ft 254 kts 356°
2026-05-09 03:20 41.60596 -87.96195 4087 ft 258 kts
2026-05-09 03:21 41.62378 -87.95841 4019 ft 258 kts
2026-05-09 03:21 41.64133 -87.95369 3986 ft 260 kts 19°
2026-05-09 03:21 41.65612 -87.94000 3936 ft 261 kts 49°
2026-05-09 03:21 41.66583 -87.91971 4096 ft 265 kts 55°
2026-05-09 03:22 41.67687 -87.89947 4082 ft 267 kts 50°
2026-05-09 03:22 41.68856 -87.88052 3747 ft 265 kts 47°
2026-05-09 03:22 41.70066 -87.86250 3339 ft 255 kts 46°
2026-05-09 03:22 41.71260 -87.84570 2939 ft 242 kts 44°
2026-05-09 03:23 41.72399 -87.83039 2518 ft 226 kts 43°
2026-05-09 03:23 41.73473 -87.81630 2276 ft 200 kts 42°
2026-05-09 03:23 41.74395 -87.80435 2147 ft 177 kts 41°
2026-05-09 03:23 41.75267 -87.79295 1953 ft 174 kts 42°
2026-05-09 03:24 41.76150 -87.78177 1786 ft 178 kts 42°
2026-05-09 03:24 41.77168 -87.76926 1279 ft 207 kts 42°
2026-05-09 03:24 41.78176 -87.75627 629 ft 193 kts 47°
2026-05-09 03:24 41.78873 -87.74722 632 ft 87 kts 45°
2026-05-09 03:25 41.79094 -87.74389 626 ft 22 kts 91°
2026-05-09 03:25 41.79024 -87.74324 623 ft 10 kts 221°
2026-05-09 03:25 41.78985 -87.74403 625 ft 13 kts 236°
2026-05-09 03:25 41.78915 -87.74513 625 ft 19 kts 222°
2026-05-09 03:26 41.78818 -87.74631 627 ft 12 kts 222°
2026-05-09 03:26 41.78737 -87.74730 627 ft 20 kts 223°
2026-05-09 03:26 41.78606 -87.74777 627 ft 19 kts 158°
2026-05-09 03:26 41.78555 -87.74709 621 ft 11 kts 132°
2026-05-09 03:27 41.78574 -87.74637 628 ft 8 kts 17°
2026-05-09 03:27 41.78609 -87.74612 621 ft 0 kts 38°